CW7171 Weather Reports


time (UTC)temp
C
wind
direction
speed
KPH
gust
KPH
rain 1hr
cm
rain 24hr
cm
rain mn
cm
humidity
%
barometer
mb
20260506070104 2 0 1.6 4.8 0.00 0.00 0.00 74 1006.0
20260506062104 1 0 4.8 11.3 0.00 0.00 0.00 78 1005.6
20260506061604 1 0 6.4 14.5 0.00 0.00 0.00 78 1005.6
20260506061104 1 0 4.8 9.7 0.00 0.00 0.00 78 1005.6
20260506060604 1 0 3.2 12.9 0.00 0.00 0.00 78 1005.6
20260506060104 1 0 4.8 8.0 0.00 0.00 0.00 79 1005.5
20260506051104 0 0 3.2 11.3 0.00 0.00 0.00 84 1005.1
20260506050603 0 0 3.2 12.9 0.00 0.00 0.00 84 1005.1
20260506050104 0 0 4.8 9.7 0.00 0.00 0.00 84 1005.1
20260506045104 0 0 4.8 11.3 0.00 0.00 0.00 83 1005.0
20260506044604 0 0 6.4 11.3 0.00 0.00 0.00 83 1004.9
20260506044104 0 0 4.8 9.7 0.00 0.00 0.00 83 1004.8
20260506043604 0 0 4.8 8.0 0.00 0.00 0.00 83 1004.8
20260506043103 0 0 3.2 8.0 0.00 0.00 0.00 83 1004.8
20260506042604 0 0 4.8 9.7 0.00 0.00 0.00 82 1004.7
20260506042104 0 0 4.8 9.7 0.00 0.00 0.00 82 1004.7
20260506041604 0 0 3.2 9.7 0.00 0.00 0.00 81 1004.7
20260506041104 0 0 4.8 11.3 0.00 0.00 0.00 80 1004.6
20260506040605 0 0 3.2 8.0 0.00 0.00 0.00 80 1004.6
20260506040104 0 0 3.2 9.7 0.00 0.00 0.00 79 1004.6
20260506035603 0 0 4.8 8.0 0.00 0.00 0.00 79 1004.6
20260506035103 0 0 4.8 9.7 0.00 0.00 0.00 79 1004.6
20260506034604 0 0 3.2 4.8 0.00 0.00 0.00 80 1004.5
20260506034103 0 0 3.2 4.8 0.00 0.00 0.00 81 1004.4
20260506033603 0 0 3.2 8.0 0.00 0.00 0.00 80 1004.4
20260506033103 0 0 1.6 4.8 0.00 0.00 0.00 81 1004.3
20260506032604 0 0 1.6 4.8 0.00 0.00 0.00 81 1004.3
20260506032104 0 0 1.6 4.8 0.00 0.00 0.00 82 1004.3
20260506031604 -1 0 0.0 1.6 0.00 0.00 0.00 82 1004.3
20260506031104 -1 0 0.0 1.6 0.00 0.00 0.00 82 1004.3
20260506030603 -1 0 0.0 3.2 0.00 0.00 0.00 82 1004.3
20260506030104 -1 0 0.0 3.2 0.00 0.00 0.00 83 1004.3
20260506025603 -1 0 1.6 3.2 0.00 0.00 0.00 83 1004.2
20260506025104 -1 0 1.6 4.8 0.00 0.00 0.00 83 1004.2
20260506024604 -1 0 0.0 3.2 0.00 0.00 0.00 83 1004.2
20260506024104 -1 0 0.0 1.6 0.00 0.00 0.00 83 1004.1
20260506023603 -1 0 0.0 4.8 0.00 0.00 0.00 83 1004.1
20260506023103 -1 0 0.0 3.2 0.00 0.00 0.00 83 1004.0
20260506022603 -1 0 1.6 3.2 0.00 0.00 0.00 83 1004.0
20260506022103 -1 0 1.6 4.8 0.00 0.00 0.00 83 1004.0
20260506021604 -1 0 1.6 4.8 0.00 0.00 0.00 84 1004.0
20260506021104 -1 0 0.0 1.6 0.00 0.00 0.00 84 1003.9
20260506020604 -1 0 1.6 4.8 0.00 0.00 0.00 84 1003.9
20260506020104 -2 0 3.2 8.0 0.00 0.00 0.00 85 1003.9
20260506015603 -2 0 1.6 3.2 0.00 0.00 0.00 85 1004.0
20260506015103 -2 0 0.0 3.2 0.00 0.00 0.00 84 1003.9
20260506014604 -2 0 1.6 4.8 0.00 0.00 0.00 84 1003.9
20260506014104 -2 0 0.0 3.2 0.00 0.00 0.00 83 1004.0
20260506013604 -2 0 1.6 3.2 0.00 0.00 0.00 82 1003.9
20260506013104 -2 0 0.0 1.6 0.00 0.00 0.00 82 1003.8
20260506012604 -2 0 0.0 0.0 0.00 0.00 0.00 82 1003.7
20260506012104 -2 0 1.6 3.2 0.00 0.00 0.00 82 1003.7
20260506011604 -2 0 1.6 3.2 0.00 0.00 0.00 82 1003.7
20260506011103 -2 0 0.0 0.0 0.00 0.00 0.00 82 1003.7
20260506010604 -2 0 0.0 1.6 0.00 0.00 0.00 82 1003.7
20260506010103 -2 0 0.0 0.0 0.00 0.00 0.00 81 1003.7
20260506005603 -1 0 0.0 0.0 0.00 0.00 0.00 80 1003.6
20260506005103 -1 0 0.0 3.2 0.00 0.00 0.00 80 1003.5
20260506004604 -1 0 0.0 3.2 0.00 0.00 0.00 79 1003.5
20260506004103 -1 0 1.6 4.8 0.00 0.00 0.00 80 1003.5
20260506003604 -1 0 1.6 3.2 0.00 0.00 0.00 79 1003.6
20260506003104 -1 0 3.2 9.7 0.00 0.00 0.00 80 1003.6
20260506002604 -1 0 3.2 4.8 0.00 0.00 0.00 79 1003.5
20260506002104 -1 0 3.2 4.8 0.00 0.00 0.00 79 1003.6
20260506001603 -1 0 1.6 4.8 0.00 0.00 0.00 80 1003.5
20260506001103 -1 0 3.2 8.0 0.00 0.00 0.00 80 1003.5
20260506000604 -1 0 1.6 8.0 0.00 0.00 0.00 80 1003.5
20260506000103 -1 0 3.2 8.0 0.00 0.00 0.00 80 1003.5
20260505235603 -1 0 3.2 4.8 0.00 0.00 0.00 80 1003.5
20260505235103 -1 0 3.2 4.8 0.00 0.00 0.00 79 1003.5
20260505234604 -1 0 3.2 8.0 0.00 0.00 0.00 79 1003.5
20260505234103 -1 0 3.2 9.7 0.00 0.00 0.00 79 1003.6
20260505233604 -1 0 4.8 9.7 0.00 0.00 0.00 79 1003.6
20260505233104 -1 0 3.2 4.8 0.00 0.00 0.00 80 1003.6
20260505232604 -1 0 3.2 9.7 0.00 0.00 0.00 79 1003.6
20260505232104 -1 0 1.6 4.8 0.00 0.00 0.00 79 1003.6
20260505231604 -1 0 3.2 9.7 0.00 0.00 0.00 79 1003.6
20260505231104 -1 0 3.2 8.0 0.00 0.00 0.00 78 1003.6
20260505230603 -1 0 3.2 4.8 0.00 0.00 0.00 78 1003.6
20260505230104 -1 0 3.2 9.7 0.00 0.00 0.00 78 1003.6
20260505225604 -1 0 3.2 8.0 0.00 0.00 0.00 78 1003.6
20260505225104 -1 0 1.6 4.8 0.00 0.00 0.00 78 1003.6
20260505224603 -1 0 1.6 4.8 0.00 0.00 0.00 77 1003.6
20260505224104 -1 0 4.8 19.3 0.00 0.00 0.00 77 1003.6
20260505223604 -1 0 3.2 8.0 0.00 0.00 0.00 77 1003.6
20260505223104 -1 0 3.2 8.0 0.00 0.00 0.00 77 1003.6
20260505222604 -1 0 3.2 8.0 0.00 0.00 0.00 77 1003.7
20260505222104 -1 0 4.8 9.7 0.00 0.00 0.00 77 1003.6
20260505221604 -1 0 6.4 11.3 0.00 0.00 0.00 77 1003.6
20260505221108 -1 0 3.2 11.3 0.00 0.00 0.00 77 1003.5
20260505220604 -1 0 4.8 9.7 0.00 0.00 0.00 76 1003.5
20260505220104 -1 0 4.8 8.0 0.00 0.00 0.00 76 1003.5
20260505215603 -1 0 3.2 8.0 0.00 0.00 0.00 76 1003.5
20260505215104 -1 0 4.8 9.7 0.00 0.00 0.00 75 1003.5
20260505214604 -1 0 3.2 4.8 0.00 0.00 0.00 75 1003.5
20260505214103 -1 0 4.8 12.9 0.00 0.00 0.00 75 1003.5
20260505213604 -1 0 6.4 12.9 0.00 0.00 0.00 75 1003.5
20260505213104 -1 0 4.8 12.9 0.00 0.00 0.00 74 1003.5
20260505212604 -1 0 6.4 11.3 0.00 0.00 0.00 74 1003.5
20260505212104 -1 0 4.8 12.9 0.00 0.00 0.00 73 1003.5
20260505211604 -1 0 4.8 9.7 0.00 0.00 0.00 73 1003.5
20260505211104 -1 0 6.4 12.9 0.00 0.00 0.00 72 1003.5
20260505210604 0 0 3.2 9.7 0.00 0.00 0.00 72 1003.4
20260505210104 0 0 4.8 9.7 0.00 0.00 0.00 71 1003.3
20260505205604 0 0 6.4 12.9 0.00 0.00 0.00 71 1003.3
20260505205104 0 0 4.8 11.3 0.00 0.00 0.00 71 1003.3
20260505204603 0 0 4.8 12.9 0.00 0.00 0.00 71 1003.2
20260505204104 0 0 4.8 11.3 0.00 0.00 0.00 70 1003.2
20260505203604 0 0 6.4 9.7 0.00 0.00 0.00 70 1003.3
20260505203104 0 0 4.8 11.3 0.00 0.00 0.00 69 1003.2
20260505202603 0 0 4.8 8.0 0.00 0.00 0.00 69 1003.3
20260505202104 0 0 4.8 9.7 0.00 0.00 0.00 68 1003.2
20260505201604 0 0 4.8 9.7 0.00 0.00 0.00 67 1003.2
20260505201104 0 0 4.8 9.7 0.00 0.00 0.00 67 1003.2
20260505200603 0 0 3.2 12.9 0.00 0.00 0.00 67 1003.1
20260505200104 1 0 8.0 14.5 0.00 0.00 0.00 66 1003.1
20260505195603 1 0 8.0 12.9 0.00 0.00 0.00 66 1003.1
20260505195104 1 0 4.8 11.3 0.00 0.00 0.00 65 1003.1
20260505194605 1 0 8.0 12.9 0.00 0.00 0.00 64 1003.1
20260505194103 1 0 8.0 14.5 0.00 0.00 0.00 64 1003.0
20260505193604 1 0 4.8 9.7 0.00 0.00 0.00 63 1002.9
20260505193105 1 0 3.2 9.7 0.00 0.00 0.00 63 1002.9
20260505192603 1 0 4.8 14.5 0.00 0.00 0.00 63 1002.9
20260505192103 1 0 3.2 8.0 0.00 0.00 0.00 62 1002.9
20260505191603 1 0 3.2 9.7 0.00 0.00 0.00 62 1002.9
20260505191104 1 0 3.2 8.0 0.00 0.00 0.00 63 1002.9
20260505190603 1 0 4.8 11.3 0.00 0.00 0.00 63 1002.9
20260505190104 1 0 4.8 11.3 0.00 0.00 0.00 63 1002.8
20260505185603 1 0 4.8 14.5 0.00 0.00 0.00 63 1002.8
20260505185103 2 0 4.8 9.7 0.00 0.00 0.00 63 1002.8
20260505184603 2 0 3.2 9.7 0.00 0.00 0.00 61 1002.7
20260505184104 2 0 3.2 9.7 0.00 0.00 0.00 61 1002.7
20260505183604 2 0 3.2 11.3 0.00 0.00 0.00 61 1002.7
20260505183104 2 0 4.8 9.7 0.00 0.00 0.00 61 1002.6
20260505182604 2 0 1.6 14.5 0.00 0.00 0.00 60 1002.6
20260505182104 2 0 3.2 9.7 0.00 0.00 0.00 59 1002.6
20260505181604 2 0 1.6 4.8 0.00 0.00 0.00 60 1002.6
20260505181104 2 0 3.2 8.0 0.00 0.00 0.00 59 1002.6
20260505180604 2 0 3.2 9.7 0.00 0.00 0.00 60 1002.5
20260505180104 2 0 1.6 4.8 0.00 0.00 0.00 60 1002.5
20260505175604 2 0 3.2 8.0 0.00 0.00 0.00 59 1002.5
20260505175104 2 0 3.2 11.3 0.00 0.00 0.00 59 1002.4
20260505174603 2 350 3.2 4.8 0.00 0.00 0.00 60 1002.4
20260505174104 2 345 3.2 11.3 0.00 0.00 0.00 61 1002.3
20260505173603 2 324 3.2 8.0 0.00 0.00 0.00 61 1002.3
20260505173103 2 0 1.6 4.8 0.00 0.00 0.00 63 1002.3
20260505172604 2 326 1.6 4.8 0.00 0.00 0.00 62 1002.3
20260505172104 2 0 3.2 9.7 0.00 0.00 0.00 61 1002.3
20260505171604 3 0 1.6 4.8 0.00 0.00 0.00 62 1002.3
20260505171103 3 337 4.8 12.9 0.00 0.00 0.00 62 1002.3
20260505170604 3 358 8.0 16.1 0.00 0.00 0.00 61 1002.2
20260505170104 3 0 6.4 16.1 0.00 0.00 0.00 60 1002.2
20260505165604 3 0 1.6 8.0 0.00 0.00 0.00 59 1002.1
20260505165104 3 0 4.8 19.3 0.00 0.00 0.00 58 1002.1
20260505164604 3 0 1.6 8.0 0.00 0.00 0.00 56 1002.1
20260505164104 3 0 3.2 16.1 0.00 0.00 0.00 55 1002.1
20260505163604 3 328 4.8 19.3 0.00 0.00 0.00 53 1002.0
20260505163103 3 0 8.0 25.7 0.00 0.00 0.00 52 1002.0
20260505162603 3 348 3.2 9.7 0.00 0.00 0.00 53 1002.0
20260505162104 3 0 3.2 9.7 0.00 0.00 0.00 57 1001.9
20260505161604 3 354 4.8 19.3 0.00 0.00 0.00 57 1001.9
20260505161104 3 301 3.2 9.7 0.00 0.00 0.00 55 1001.9
20260505160604 3 277 4.8 12.9 0.00 0.00 0.00 57 1001.9
20260505160104 3 345 3.2 11.3 0.00 0.00 0.00 60 1001.9
20260505153104 3 292 3.2 19.3 0.00 0.00 0.00 51 1001.7
20260505152604 3 358 3.2 4.8 0.00 0.00 0.00 54 1001.7
20260505152103 3 0 4.8 12.9 0.00 0.00 0.00 56 1001.6
20260505151604 3 0 4.8 19.3 0.00 0.00 0.00 53 1001.7
20260505151104 3 0 9.7 19.3 0.00 0.00 0.00 53 1001.7
20260505150604 4 344 3.2 9.7 0.00 0.00 0.00 53 1001.6
20260505150104 4 319 4.8 9.7 0.00 0.00 0.00 51 1001.6
20260505140604 3 0 3.2 4.8 0.00 0.00 0.00 57 1001.2
20260505140104 3 265 1.6 8.0 0.00 0.00 0.00 58 1001.2
20260505130104 5 282 6.4 19.3 0.00 0.00 0.00 45 1001.0
20260505124604 3 0 4.8 19.3 0.00 0.00 0.00 51 1001.0
20260505124104 3 266 4.8 19.3 0.00 0.00 0.00 52 1001.0
20260505123603 3 347 3.2 11.3 0.00 0.00 0.00 53 1000.9
20260505123104 3 0 4.8 8.0 0.00 0.00 0.00 54 1000.9
20260505122604 3 0 3.2 8.0 0.00 0.00 0.00 53 1000.9
20260505122104 3 280 3.2 9.7 0.00 0.00 0.00 57 1000.8
20260505121603 3 302 1.6 11.3 0.00 0.00 0.00 60 1000.7
20260505121104 3 306 3.2 8.0 0.00 0.00 0.00 59 1000.7
20260505120603 3 0 4.8 8.0 0.00 0.00 0.00 58 1000.7
20260505120103 4 338 6.4 16.1 0.00 0.00 0.00 56 1000.6
20260505115604 4 341 3.2 12.9 0.00 0.00 0.00 49 1000.6
20260505115104 4 270 9.7 25.7 0.00 0.00 0.00 47 1000.5
20260505114603 5 339 4.8 16.1 0.00 0.00 0.00 47 1000.5
20260505114104 6 269 3.2 11.3 0.00 0.00 0.00 45 1000.4
20260505113603 6 281 11.3 22.5 0.00 0.00 0.00 44 1000.4
20260505113103 5 273 9.7 24.1 0.00 0.00 0.00 50 1000.3
20260505112604 4 297 3.2 19.3 0.00 0.00 0.00 52 1000.3
20260505112104 3 0 1.6 16.1 0.00 0.00 0.00 51 1000.4
20260505111604 4 0 3.2 14.5 0.00 0.00 0.00 54 1000.3
20260505111103 5 281 4.8 8.0 0.00 0.00 0.00 49 1000.2
20260505110603 5 326 3.2 9.7 0.00 0.00 0.00 49 1000.2
20260505102104 3 290 1.6 11.3 0.00 0.00 0.00 53 1000.0
20260505101604 3 286 3.2 11.3 0.00 0.00 0.00 52 999.9
20260505101104 3 273 3.2 12.9 0.00 0.00 0.00 51 999.9
20260505100604 4 0 3.2 19.3 0.00 0.00 0.00 51 999.8
20260505100104 4 353 4.8 16.1 0.00 0.00 0.00 52 999.8
20260505095604 4 341 4.8 14.5 0.00 0.00 0.00 50 999.7
20260505095103 4 0 3.2 12.9 0.00 0.00 0.00 51 999.7
20260505094603 4 292 4.8 12.9 0.00 0.00 0.00 51 999.8
20260505094104 4 274 4.8 9.7 0.00 0.00 0.00 50 999.8
20260505093604 5 293 4.8 19.3 0.00 0.00 0.00 51 999.8
20260505093103 5 296 3.2 8.0 0.00 0.00 0.00 52 999.7
20260505092603 4 283 4.8 14.5 0.00 0.00 0.00 52 999.7
20260505092104 4 316 8.0 12.9 0.00 0.00 0.00 51 999.6
20260505091604 4 310 4.8 9.7 0.00 0.00 0.00 52 999.6
20260505091103 4 311 1.6 9.7 0.00 0.00 0.00 54 999.6
20260505090603 4 333 3.2 8.0 0.00 0.00 0.00 52 999.6
20260505085604 4 351 4.8 14.5 0.00 0.00 0.00 53 999.6
20260505085103 4 322 3.2 12.9 0.00 0.00 0.00 54 999.6
20260505084603 5 304 4.8 11.3 0.00 0.00 0.00 51 999.4
20260505084104 5 294 4.8 11.3 0.00 0.00 0.00 53 999.4
20260505083604 4 298 4.8 11.3 0.00 0.00 0.00 52 999.4
20260505083104 5 330 3.2 11.3 0.00 0.00 0.00 52 999.2
20260505082603 4 299 3.2 11.3 0.00 0.00 0.00 54 999.2
20260505082104 4 291 3.2 9.7 0.00 0.00 0.00 54 999.2
20260505081604 4 314 3.2 9.7 0.00 0.00 0.00 54 999.2
20260505081103 4 303 6.4 14.5 0.00 0.00 0.00 54 999.1
20260505080604 4 314 3.2 14.5 0.00 0.00 0.00 55 999.2
20260505080104 4 273 4.8 25.7 0.00 0.00 0.00 56 999.1
20260505075604 3 292 3.2 9.7 0.00 0.00 0.00 58 999.1
20260505075104 3 287 4.8 16.1 0.00 0.00 0.00 57 999.1
20260505074603 3 295 4.8 9.7 0.00 0.00 0.00 58 999.1
20260505074104 3 314 3.2 11.3 0.00 0.00 0.00 58 999.1
20260505073604 3 274 3.2 8.0 0.00 0.00 0.00 59 999.1
20260505073104 3 305 4.8 20.9 0.00 0.00 0.00 57 999.1
20260505072604 3 288 3.2 11.3 0.00 0.00 0.00 57 999.1
20260505072104 3 266 4.8 9.7 0.00 0.00 0.00 57 999.0
20260505071603 3 318 3.2 9.7 0.00 0.00 0.00 56 999.0
20260505071103 3 296 4.8 14.5 0.00 0.00 0.00 56 999.0
20260505070604 3 271 3.2 12.9 0.00 0.00 0.00 58 998.9